Hourly Data Report for February 02, 2006

TORONTO CITY
ONTARIO

43°40'00.000" N
79°24'00.000" W
112.50 m
6158355
71508
XTO

Download Data

Hourly Data (February 2006)
Hourly Data Report for February 2, 2006
TIME
LST
Temp Definition
°C
Dew Point Definition
°C
Rel Hum Definition
%
Precip. Amount Definition
mm

Wind Dir Definition
10's deg

Wind Spd Definition
km/h
Visibility Definition
km
Stn Press Definition
kPa
Hmdx Definition


Wind Chill Definition


Weather Definition


00:00 3.9 0.3 77   LegendMM LegendMM   99.35     LegendNANA
01:00 4.1 0.5 77   LegendMM LegendMM   99.31     LegendNANA
02:00 4.0 0.8 80   LegendMM LegendMM   99.33     LegendNANA
03:00 4.0 1.1 81   LegendMM LegendMM   99.35     LegendNANA
04:00 4.3 1.2 80   LegendMM LegendMM   99.35     LegendNANA
05:00 4.0 0.7 79   LegendMM LegendMM   99.38     LegendNANA
06:00 2.9 0.3 83   LegendMM LegendMM   99.41     LegendNANA
07:00 3.6 0.7 81   LegendMM LegendMM   99.48     LegendNANA
08:00 3.8 1.1 83   LegendMM LegendMM   99.54     LegendNANA
09:00 4.2 1.1 80   LegendMM LegendMM   99.60     LegendNANA
10:00 4.8 1.5 79   LegendMM LegendMM   99.60     LegendNANA
11:00 5.5 0.9 72   LegendMM LegendMM   99.62     LegendNANA
12:00 6.6 1.3 69   LegendMM LegendMM   99.56     LegendNANA
13:00 7.2 1.7 68   LegendMM LegendMM   99.48     LegendNANA
14:00 7.0 1.6 68   LegendMM LegendMM   99.41     LegendNANA
15:00 6.0 1.4 72   LegendMM LegendMM   99.40     LegendNANA
16:00 5.6 1.1 73   LegendMM LegendMM   99.40     LegendNANA
17:00 5.8 1.0 71   LegendMM LegendMM   99.37     LegendNANA
18:00 5.9 1.2 72   LegendMM LegendMM   99.41     LegendNANA
19:00 4.9 1.3 77   LegendMM LegendMM   99.41     LegendNANA
20:00 4.6 2.0 83   LegendMM LegendMM   99.39     LegendNANA
21:00 5.0 2.1 81   LegendMM LegendMM   99.28     LegendNANA
22:00 4.6 1.7 81   LegendMM LegendMM   99.21     LegendNANA
23:00 4.9 1.9 81   LegendMM LegendMM   99.13     LegendNANA

Notes on Data Quality.

Legend

  • E = Estimated
  • M = Missing
  • NA = Not Available*
  • [empty] = Indicates an unobserved value
Date modified: